{"data":{"norad_id":66966,"epoch":"2026-09-20T22:59:51.783936Z","epoch_age_seconds":41881,"freshness":"FRESH","line1":"1 66966U 25288H   26263.95823824  .00011187  00000+0  41522-3 0  9992","line2":"2 66966  43.0010   0.4680 0001957 279.4672  80.5958 15.27597484 45152","mean_motion":15.27597484,"eccentricity":0.0001957,"inclination_deg":43.001,"raan_deg":0.468,"arg_perigee_deg":279.4672,"mean_anomaly_deg":80.5958,"bstar":0.00041522,"rev_number":4515,"period_min":94.265669790799,"perigee_km":481.65401927962,"apogee_km":484.33946702669,"semimajor_km":6861.1337431532,"source":"CELESTRAK","updated_at":"2026-09-21T09:00:36.063418Z"}}